Location: *
(57.8420°S, 159.8600°W)
Time: 02:26:46
(UTC+00:00)

Lacrosse 4 Rocket - Pass Details

Date: 18 May 2021
Orbit: 541 x 616 km, 68.0° (Epoch: 23 June)

Event Time Altitude Azimuth Distance (km) Brightness Sun altitude
Rises 06:03:47 0° 230° (SW) 2,803 5.8 -28.1°
Reaches altitude 10° 06:06:13 10° 218° (SW) 1,915 4.6 -28.5°
Enters shadow 06:08:06 21° 199° (SSW) 1,339 3.5 -28.7°
